Printer-friendly version

IAU Minor Planet Center

Minor Planet Center

MPEC 2000-E56: 2000 EV70

The following Minor Planet Electronic Circular may be linked-to from your own Web pages, but must not otherwise be redistributed electronically.


Read MPEC 2000-E55 Read MPEC 2000-E57


M.P.E.C. 2000-E56                                Issued 2000 Mar. 13, 19:51 UT

     The Minor Planet Electronic Circulars contain information on unusual
         minor planets and routine data on comets.  They are published
   on behalf of Commission 20 of the International Astronomical Union by the
          Minor Planet Center, Smithsonian Astrophysical Observatory,
                          Cambridge, MA 02138, U.S.A.

             Prepared using the Tamkin Foundation Computer Network

             BMARSDEN@CFA.HARVARD.EDU or GWILLIAMS@CFA.HARVARD.EDU
          URL http://cfa-www.harvard.edu/iau/mpc.html  ISSN 1523-6714

                                   2000 EV70

Observations:
     K00E70V* C2000 03 08.40369 15 00 05.68 +01 29 58.1          15.9        704
     K00E70V  C2000 03 08.41985 14 59 42.71 +01 31 04.3          15.9        704
     K00E70V  C2000 03 08.43522 14 59 20.87 +01 32 07.0          15.8        704
     K00E70V  C2000 03 08.44994 14 58 59.93 +01 33 07.7          15.7        704
     K00E70V  C2000 03 08.46492 14 58 38.66 +01 34 09.0          16.0        704
     K00E70V  C2000 03 09.42464 14 37 41.40 +02 35 47.5          16.7        704
     K00E70V  C2000 03 09.43746 14 37 24.91 +02 36 34.0          17.5        704
     K00E70V  C2000 03 09.45029 14 37 08.45 +02 37 20.1          17.6        704
     K00E70V  C2000 03 09.46313 14 36 51.99 +02 38 06.6                      704
     K00E70V  C2000 03 09.97471 14 26 39.76 +03 07 36.6                      620
     K00E70V  C2000 03 09.97621 14 26 37.97 +03 07 41.5          16.4 R      620
     K00E70V  C2000 03 09.98003 14 26 33.42 +03 07 54.1          16.4 R      620
     K00E70V  C2000 03 09.98200 14 26 31.07 +03 08 00.6                      620
     K00E70V  C2000 03 10.36803 14 19 05.76 +03 29 11.0          14.4        704
     K00E70V  C2000 03 10.38190 14 18 49.68 +03 29 55.2          14.3        704
     K00E70V  C2000 03 10.39541 14 18 34.07 +03 30 37.7          14.1        704
     K00E70V  C2000 03 10.40977 14 18 17.48 +03 31 23.4          14.2        704
     K00E70V  C2000 03 10.42349 14 18 01.64 +03 32 06.9          15.0        704
     K00E70V  C2000 03 10.44686 14 17 34.72 +03 33 20.0          15.7        704
     K00E70V  C2000 03 10.46005 14 17 19.59 +03 34 01.0          15.4        704
     K00E70V  C2000 03 10.47455 14 17 02.92 +03 34 46.0          15.5        704
     K00E70V  C2000 03 10.48824 14 16 47.33 +03 35 28.7          15.4        704
     K00E70V  C2000 03 10.50277 14 16 30.76 +03 36 14.0          16.2        704
     K00E70V pC2000 03 11.00545 14 07 35.80 +04 00 57.8          16.2        461
     K00E70V pC2000 03 11.00602 14 07 35.06 +04 00 58.7          16.4        461
     K00E70V pC2000 03 11.00668 14 07 34.51 +04 01 02.2          16.7        461
     K00E70V  C2000 03 11.35183 14 01 42.51 +04 17 28.0          16.2 R      858
     K00E70V  C2000 03 11.35396 14 01 40.30 +04 17 33.9          16.2 R      858
     K00E70V  C2000 03 11.35545 14 01 38.75 +04 17 37.9          16.2 R      858
     K00E70V  C2000 03 11.42019 14 00 33.30 +04 20 35.7                      670
     K00E70V  C2000 03 11.48230 13 59 29.75 +04 23 21.8                      670
     K00E70V  C2000 03 11.53075 13 58 40.51 +04 25 30.0                      670
     K00E70V  C2000 03 11.90925 13 52 45.07 +04 41 23.6          16.5 R      046
     K00E70V  C2000 03 11.90990 13 52 44.45 +04 41 25.2                      046
     K00E70V  C2000 03 11.91036 13 52 44.02 +04 41 26.3                      046
     K00E70V  C2000 03 11.91084 13 52 43.57 +04 41 27.9                      046
     K00E70V  C2000 03 11.91164 13 52 42.76 +04 41 29.6                      046
     K00E70V  C2000 03 11.91223 13 52 42.18 +04 41 31.2          16.3 R      046
     K00E70V  C2000 03 12.25472 13 47 29.10 +04 55 41.1          16.8 V      858
     K00E70V  C2000 03 12.25642 13 47 27.59 +04 55 45.5          16.8 V      858
     K00E70V  C2000 03 12.25802 13 47 26.07 +04 55 49.1          16.9 V      858
     K00E70V  C2000 03 12.25934 13 47 24.85 +04 55 52.2          16.7 V      858
     K00E70V  C2000 03 12.39612 13 45 19.38 +05 01 16.1          16.8        704
     K00E70V  C2000 03 12.40884 13 45 07.74 +05 01 45.8          17.1        704
     K00E70V  C2000 03 12.42156 13 44 56.12 +05 02 15.1          17.2        704
     K00E70V  C2000 03 12.43426 13 44 44.30 +05 02 43.7          17.1        704
     K00E70V  C2000 03 12.44733 13 44 32.68 +05 03 14.4          17.2        704
     K00E70V  C2000 03 12.50040 13 43 45.78 +05 05 14.2                      670
     K00E70V  C2000 03 12.84963 13 38 47.22 +05 17 59.4                      345
     K00E70V  C2000 03 12.85427 13 38 43.12 +05 18 09.9                      345
     K00E70V  C2000 03 12.85701 13 38 40.73 +05 18 15.7                      345
     K00E70V  C2000 03 12.85992 13 38 38.29 +05 18 21.7                      345
     K00E70V  C2000 03 12.86333 13 38 35.17 +05 18 29.3                      345
     K00E70V  C2000 03 12.86635 13 38 32.89 +05 18 34.2                      345
     K00E70V  C2000 03 12.92780 13 37 48.57 +05 20 32.9          16.0 R      151
     K00E70V  C2000 03 12.93479 13 37 42.84 +05 20 47.8          16.8 R      151
     K00E70V  C2000 03 12.93654 13 37 41.37 +05 20 51.9          16.6 R      151
     K00E70V  C2000 03 12.93905 13 37 39.15 +05 20 56.7          16.7 R      151
     K00E70V  C2000 03 12.94072 13 37 37.72 +05 21 00.4          16.3 R      151
     K00E70V  C2000 03 12.94421 13 37 34.75 +05 21 07.1          16.6 R      151
     K00E70V  C2000 03 13.16356 13 34 30.72 +05 28 46.9          16.8 V      104
     K00E70V  C2000 03 13.16475 13 34 29.76 +05 28 49.1                      104
     K00E70V  C2000 03 13.16632 13 34 28.45 +05 28 52.2                      104

Observer details:
046 Klet.  Observers J. Ticha, M. Tichy.  0.57-m f/5.2 reflector + CCD.
104 San Marcello Pistoiese.  Observers L. Tesi, A. Boattini, M. Tombelli.
    Measurers G. Forti, L. Tesi, A. Boattini, M. Tombelli.  0.40-m f/5
    reflector + CCD.
151 Eschenberg Observatory, Winterthur.  Observer M. Griesser.  0.25-m f/8.0
    reflector + CCD.
345 Sobaeksan Optical Astronomy Observatory.  Observers J.-W. Lee, S.-L. Kim.
    0.61-m reflector + CCD.
461 JATE Asteroid Survey, Piszkesteto Stn. (Konkoly).  Observers K. Sarneczky,
    L. Kiss, K. Sziladi.  0.60-m Schmidt + CCD.
620 Observatorio Astronomico de Mallorca.  Observers A. Lopez, R. Pacheco.
    0.30-m f/3.3 Schmidt-Cassegrain + CCD.
670 Camarillo.  Observer J. E. Rogers.  0.30-m f/6.7 Helin Telescope + CCD.
704 Lincoln Laboratory ETS, New Mexico.  Observers M. Blythe, F. Shelly,
    M. Bezpalko, M. Elowitz, R. Huber.  Measurers J. Stuart, H. Viggh,
    R. Sayer, J. B. Evans.  1.0-m f/2.15 reflector + CCD.
858 Tebbutt Observatory, Edgewood.  Observer F. B. Zoltowski.  0.3-m f/3.3
    Schmidt-Cassegrain + CCD.

Orbital elements:
2000 EV70                                                            PHA 0.012
Epoch 2000 Feb. 26.0 TT = JDT 2451600.5                 Williams
M  36.84845              (2000.0)            P               Q
n   0.74500310     Peri.  314.81289     +0.44673499     -0.89437218
a   1.2051210      Node   108.64010     +0.82752086     +0.40332535
e   0.5288872      Incl.    1.38727     +0.34005452     +0.19346076
P   1.32           H   20.3           G   0.15
From 63 observations 2000 Mar. 8-13.

Ephemeris:
2000 EV70                a,e,i = 1.21, 0.53, 1                   q = 0.5677
Date    TT    R. A. (2000) Decl.     Delta      r     Elong.  Phase     V
2000 03 07    15 34.49   -00 12.0    0.069    1.022   114.0    62.5    16.7
2000 03 12    13 51.30   +04 46.3    0.090    1.068   144.6    32.6    16.6
2000 03 17    12 53.37   +07 05.9    0.123    1.114   162.7    15.4    16.8
2000 03 22    12 20.50   +08 06.9    0.163    1.157   170.5     8.2    17.2
2000 03 27    12 00.57   +08 32.0    0.206    1.200   167.4    10.5    17.9
2000 04 01    11 47.97   +08 38.0    0.252    1.240   161.0    15.2    18.6
2000 04 06    11 39.99   +08 32.3    0.301    1.280   154.9    19.4    19.2
2000 04 11    11 35.18   +08 18.4    0.353    1.318   149.2    22.9    19.7
2000 04 16    11 32.67   +07 58.5    0.407    1.355   144.0    25.8    20.2
2000 04 21    11 31.87   +07 33.9    0.464    1.390   139.2    28.2    20.6
2000 04 26    11 32.39   +07 05.5    0.523    1.423   134.7    30.2    21.0
2000 05 01    11 33.98   +06 34.1    0.584    1.456   130.4    31.8    21.3
2000 05 06    11 36.44   +05 59.9    0.646    1.486   126.4    33.1    21.6
2000 05 11    11 39.65   +05 23.2    0.711    1.516   122.5    34.2    21.9
2000 05 16    11 43.47   +04 44.5    0.777    1.544   118.9    35.0    22.1

Gareth V. Williams           (C) Copyright 2000 MPC           M.P.E.C. 2000-E56

Read MPEC 2000-E55 Read MPEC 2000-E57


Our Web policy. Index to the CBAT/MPC/ICQ pages.


Valid HTML 4.01!